Torna al catalogo

STARLINK-11578

AttivoComunicazioniVLEO
NORAD 63014·PAYLOAD·🇺🇸 United States

Lanciato Feb 15, 2025 da Cape Canaveral Space Force Station

Loading…

Prossimi Passaggi (prossime 24 ore)

TLE

AggiornatoSource: CelesTrak SupGP

Epoca: Sep 14, 2026, 14:37 UTC

1 63014C 25032K   26257.60951389  .00046265  00000+0  35962-3 0  2576
2 63014  43.0001 136.8979 0001641 247.4105  73.9506 15.70796456    13

Traccia STARLINK-11578 in tempo reale con AllMySat

Download on the App Store